Overview Statistics Trail Chart Weather Telemetry Raw packets
 

This is the latest recevied weather packets stored in our database for station/object KC1BRV. If no packets are shown the sender has not sent any weather packets the latest 10 day(s).

<< 94 95 96 97 98 99 100 >>
Time Temp. Humidity Pressure Rain* Wind** Luminosity Snow
1787917366 22.22° C 99% 1016.8 hPa 0 mm - 79 W/m² -
1787917065 21.67° C 99% 1016.9 hPa 0 mm - 108 W/m² -
1787916761 21.67° C 99% 1016.8 hPa 0 mm - 109 W/m² -
1787916459 21.67° C 99% 1016.6 hPa 0 mm - 109 W/m² -
1787916156 21.67° C 99% 1016.8 hPa 0 mm - 90 W/m² -
1787915851 21.67° C 99% 1016.6 hPa 0 mm - 59 W/m² -
1787915546 21.67° C 99% 1016.9 hPa 0 mm - 34 W/m² -
1787915245 21.67° C 99% 1016.8 hPa 0 mm - 47 W/m² -
1787914947 21.67° C 99% 1016.5 hPa 0 mm - 29 W/m² -
1787914644 21.67° C 99% 1016.6 hPa 0 mm - 28 W/m² -
1787914339 21.11° C 99% 1016.4 hPa 0 mm - 18 W/m² -
1787914034 21.11° C 99% 1016.5 hPa 0 mm - 8 W/m² -
1787913733 21.11° C 99% 1016.3 hPa 0 mm - 9 W/m² -
1787913428 21.11° C 99% 1016.3 hPa 0 mm - 6 W/m² -
1787913128 21.11° C 99% 1016.5 hPa 0 mm - 5 W/m² -
1787912826 21.11° C 99% 1016.4 hPa 0 mm - 4 W/m² -
1787912522 21.11° C 99% 1016.2 hPa 0 mm - 2 W/m² -
1787912221 21.11° C 99% 1016 hPa 0 mm - 2 W/m² -
1787911916 21.11° C 99% 1016.1 hPa 0 mm - 1 W/m² -
1787911611 21.11° C 99% 1016.1 hPa 0 mm - 1 W/m² -
1787911311 21.11° C 99% 1015.8 hPa 0 mm - 0 W/m² -
1787911007 21.11° C 99% 1016 hPa 0 mm - 0 W/m² -
1787910703 21.11° C 99% 1016 hPa 0 mm - 0 W/m² -
1787910402 21.11° C 99% 1015.8 hPa 0 mm - 0 W/m² -
1787910098 21.11° C 99% 1015.7 hPa 0 mm - 0 W/m² -

* Rain latest hour (hover to see other rain measurements)
** Current wind speed in m/s (hover to see current wind gust speed)